owner,sensor,date,latitude,longitude,vertical_datum,sea_water_practical_salinity,qcFlag 
NERRS,ioos:station:NOAA.NERRS:rkblhwq:1,2016-01-01T03:45:00Z,26.0257,-81.7332,0.8,31.3,1111122 
NERRS,ioos:station:NOAA.NERRS:rkblhwq:1,2016-01-01T04:45:00Z,26.0257,-81.7332,0.73,31.3,1111122 
NERRS,ioos:station:NOAA.NERRS:rkblhwq:1,2016-01-01T05:45:00Z,26.0257,-81.7332,0.71,31.2,1111122 
NERRS,ioos:station:NOAA.NERRS:rkblhwq:1,2016-01-01T06:45:00Z,26.0257,-81.7332,0.76,31.1,1111122 
NERRS,ioos:station:NOAA.NERRS:rkblhwq:1,2016-01-01T07:45:00Z,26.0257,-81.7332,0.83,31.7,1111122 
NERRS,ioos:station:NOAA.NERRS:rkblhwq:1,2016-01-01T08:45:00Z,26.0257,-81.7332,0.9,31.5,1111122 
NERRS,ioos:station:NOAA.NERRS:rkblhwq:1,2016-01-01T09:45:00Z,26.0257,-81.7332,0.97,31.6,1111122 
NERRS,ioos:station:NOAA.NERRS:rkblhwq:1,2016-01-01T10:45:00Z,26.0257,-81.7332,0.98,31.6,1111122 
NERRS,ioos:station:NOAA.NERRS:rkblhwq:1,2016-01-01T11:45:00Z,26.0257,-81.7332,0.98,31.7,1111122 
NERRS,ioos:station:NOAA.NERRS:rkblhwq:1,2016-01-01T12:45:00Z,26.0257,-81.7332,0.92,31.1,1111122 
NERRS,ioos:station:NOAA.NERRS:rkblhwq:1,2016-01-01T13:45:00Z,26.0257,-81.7332,0.86,29.8,1111122 
NERRS,ioos:station:NOAA.NERRS:rkblhwq:1,2016-01-01T14:45:00Z,26.0257,-81.7332,0.77,29.9,1111122 
NERRS,ioos:station:NOAA.NERRS:rkblhwq:1,2016-01-01T15:45:00Z,26.0257,-81.7332,0.68,30.0,1111122 
NERRS,ioos:station:NOAA.NERRS:rkblhwq:1,2016-01-01T16:45:00Z,26.0257,-81.7332,0.64,29.9,1111122 
NERRS,ioos:station:NOAA.NERRS:rkblhwq:1,2016-01-01T17:45:00Z,26.0257,-81.7332,0.66,30.2,1111122 
NERRS,ioos:station:NOAA.NERRS:rkblhwq:1,2016-01-02T20:45:00Z,26.0257,-81.7332,0.84,31.2,1111122 
NERRS,ioos:station:NOAA.NERRS:rkblhwq:1,2016-01-02T21:45:00Z,26.0257,-81.7332,0.93,31.2,1111122 
NERRS,ioos:station:NOAA.NERRS:rkblhwq:1,2016-01-02T22:45:00Z,26.0257,-81.7332,1.04,31.7,1111122 
NERRS,ioos:station:NOAA.NERRS:rkblhwq:1,2016-01-02T23:45:00Z,26.0257,-81.7332,1.16,31.8,1111122 
NERRS,ioos:station:NOAA.NERRS:rkblhwq:1,2016-01-03T01:45:00Z,26.0257,-81.7332,1.16,31.5,1111122 
NERRS,ioos:station:NOAA.NERRS:rkblhwq:1,2016-01-03T02:45:00Z,26.0257,-81.7332,1.06,31.1,1111122 
NERRS,ioos:station:NOAA.NERRS:rkblhwq:1,2016-01-03T03:45:00Z,26.0257,-81.7332,0.96,31.0,1111122 
NERRS,ioos:station:NOAA.NERRS:rkblhwq:1,2016-01-03T04:45:00Z,26.0257,-81.7332,0.86,30.8,1111122 
NERRS,ioos:station:NOAA.NERRS:rkblhwq:1,2016-01-03T05:45:00Z,26.0257,-81.7332,0.76,30.9,1111122 
NERRS,ioos:station:NOAA.NERRS:rkblhwq:1,2016-01-03T06:45:00Z,26.0257,-81.7332,0.68,30.8,1111122 
NERRS,ioos:station:NOAA.NERRS:rkblhwq:1,2016-01-03T07:45:00Z,26.0257,-81.7332,0.62,30.9,1111122 
NERRS,ioos:station:NOAA.NERRS:rkblhwq:1,2016-01-03T08:45:00Z,26.0257,-81.7332,0.63,30.8,1111122 
NERRS,ioos:station:NOAA.NERRS:rkblhwq:1,2016-01-03T09:45:00Z,26.0257,-81.7332,0.7,31.4,1111122 
NERRS,ioos:station:NOAA.NERRS:rkblhwq:1,2016-01-03T10:45:00Z,26.0257,-81.7332,0.78,31.4,1111122 
NERRS,ioos:station:NOAA.NERRS:rkblhwq:1,2016-01-03T11:45:00Z,26.0257,-81.7332,0.85,31.4,1111122 
NERRS,ioos:station:NOAA.NERRS:rkblhwq:1,2016-01-03T12:45:00Z,26.0257,-81.7332,0.93,31.4,1111122 
NERRS,ioos:station:NOAA.NERRS:rkblhwq:1,2016-01-03T13:45:00Z,26.0257,-81.7332,0.99,31.7,1111122 
NERRS,ioos:station:NOAA.NERRS:rkblhwq:1,2016-01-03T14:45:00Z,26.0257,-81.7332,0.99,31.3,1111122 
NERRS,ioos:station:NOAA.NERRS:rkblhwq:1,2016-01-03T15:45:00Z,26.0257,-81.7332,0.92,31.3,1111122 
NERRS,ioos:station:NOAA.NERRS:rkblhwq:1,2016-01-03T16:45:00Z,26.0257,-81.7332,0.87,31.1,1111122 
NERRS,ioos:station:NOAA.NERRS:rkblhwq:1,2016-01-03T17:45:00Z,26.0257,-81.7332,0.79,31.0,1111122 
NERRS,ioos:station:NOAA.NERRS:rkblhwq:1,2016-01-03T18:45:00Z,26.0257,-81.7332,0.73,31.0,1111122 
NERRS,ioos:station:NOAA.NERRS:rkblhwq:1,2016-01-03T20:45:00Z,26.0257,-81.7332,0.81,31.6,1111122 
NERRS,ioos:station:NOAA.NERRS:rkblhwq:1,2016-01-03T21:45:00Z,26.0257,-81.7332,0.94,31.5,1111122 
NERRS,ioos:station:NOAA.NERRS:rkblhwq:1,2016-01-03T22:45:00Z,26.0257,-81.7332,1.02,31.8,1111122 
NERRS,ioos:station:NOAA.NERRS:rkblhwq:1,2016-01-04T00:45:00Z,26.0257,-81.7332,1.03,31.6,1111122 
NERRS,ioos:station:NOAA.NERRS:rkblhwq:1,2016-01-04T01:45:00Z,26.0257,-81.7332,1.09,31.8,1111122 
NERRS,ioos:station:NOAA.NERRS:rkblhwq:1,2016-01-04T03:45:00Z,26.0257,-81.7332,1.0,31.3,1111122 
NERRS,ioos:station:NOAA.NERRS:rkblhwq:1,2016-01-04T04:45:00Z,26.0257,-81.7332,0.88,31.0,1111122 
NERRS,ioos:station:NOAA.NERRS:rkblhwq:1,2016-01-04T05:45:00Z,26.0257,-81.7332,0.75,30.8,1111122 
NERRS,ioos:station:NOAA.NERRS:rkblhwq:1,2016-01-04T06:45:00Z,26.0257,-81.7332,0.63,30.8,1111122 
NERRS,ioos:station:NOAA.NERRS:rkblhwq:1,2016-01-04T07:45:00Z,26.0257,-81.7332,0.55,30.7,1111122 
NERRS,ioos:station:NOAA.NERRS:rkblhwq:1,2016-01-04T08:45:00Z,26.0257,-81.7332,0.52,29.5,1111122 
NERRS,ioos:station:NOAA.NERRS:rkblhwq:1,2016-01-04T09:45:00Z,26.0257,-81.7332,0.55,30.1,1111122 
NERRS,ioos:station:NOAA.NERRS:rkblhwq:1,2016-01-04T10:45:00Z,26.0257,-81.7332,0.65,30.7,1111122 
NERRS,ioos:station:NOAA.NERRS:rkblhwq:1,2016-01-04T12:45:00Z,26.0257,-81.7332,0.83,31.1,1111122 
NERRS,ioos:station:NOAA.NERRS:rkblhwq:1,2016-01-04T13:45:00Z,26.0257,-81.7332,0.92,31.2,1111122 
NERRS,ioos:station:NOAA.NERRS:rkblhwq:1,2016-01-04T14:45:00Z,26.0257,-81.7332,0.94,31.2,1111122 
NERRS,ioos:station:NOAA.NERRS:rkblhwq:1,2016-01-04T15:45:00Z,26.0257,-81.7332,0.92,31.2,1111122 
NERRS,ioos:station:NOAA.NERRS:rkblhwq:1,2016-01-04T16:45:00Z,26.0257,-81.7332,0.85,30.4,1111122 
NERRS,ioos:station:NOAA.NERRS:rkblhwq:1,2016-01-04T17:45:00Z,26.0257,-81.7332,0.78,30.6,1111122 
NERRS,ioos:station:NOAA.NERRS:rkblhwq:1,2016-01-04T18:45:00Z,26.0257,-81.7332,0.75,30.4,1111122 
NERRS,ioos:station:NOAA.NERRS:rkblhwq:1,2016-01-04T19:45:00Z,26.0257,-81.7332,0.76,30.1,1111122 
NERRS,ioos:station:NOAA.NERRS:rkblhwq:1,2016-01-04T20:45:00Z,26.0257,-81.7332,0.78,30.5,1111122 
NERRS,ioos:station:NOAA.NERRS:rkblhwq:1,2016-01-04T21:45:00Z,26.0257,-81.7332,0.85,31.2,1111122 
NERRS,ioos:station:NOAA.NERRS:rkblhwq:1,2016-01-04T22:45:00Z,26.0257,-81.7332,0.92,31.2,1111122 
NERRS,ioos:station:NOAA.NERRS:rkblhwq:1,2016-01-04T23:45:00Z,26.0257,-81.7332,1.01,31.3,1111122 
NERRS,ioos:station:NOAA.NERRS:rkblhwq:1,2016-01-05T00:45:00Z,26.0257,-81.7332,1.08,31.4,1111122 
NERRS,ioos:station:NOAA.NERRS:rkblhwq:1,2016-01-05T01:45:00Z,26.0257,-81.7332,1.16,31.6,1111122 
NERRS,ioos:station:NOAA.NERRS:rkblhwq:1,2016-01-05T02:45:00Z,26.0257,-81.7332,1.15,31.6,1111122 
NERRS,ioos:station:NOAA.NERRS:rkblhwq:1,2016-01-05T03:45:00Z,26.0257,-81.7332,1.08,31.2,1111122 
NERRS,ioos:station:NOAA.NERRS:rkblhwq:1,2016-01-05T04:45:00Z,26.0257,-81.7332,0.98,31.2,1111122 
NERRS,ioos:station:NOAA.NERRS:rkblhwq:1,2016-01-05T05:45:00Z,26.0257,-81.7332,0.86,31.1,1111122 
NERRS,ioos:station:NOAA.NERRS:rkblhwq:1,2016-01-05T06:45:00Z,26.0257,-81.7332,0.73,30.7,1111122 
NERRS,ioos:station:NOAA.NERRS:rkblhwq:1,2016-01-05T07:45:00Z,26.0257,-81.7332,0.61,30.7,1111122 
NERRS,ioos:station:NOAA.NERRS:rkblhwq:1,2016-01-05T09:45:00Z,26.0257,-81.7332,0.43,30.5,1111122 
NERRS,ioos:station:NOAA.NERRS:rkblhwq:1,2016-01-05T10:45:00Z,26.0257,-81.7332,0.44,29.5,1111122 
NERRS,ioos:station:NOAA.NERRS:rkblhwq:1,2016-01-05T11:45:00Z,26.0257,-81.7332,0.53,30.6,1111122 
NERRS,ioos:station:NOAA.NERRS:rkblhwq:1,2016-01-05T12:45:00Z,26.0257,-81.7332,0.62,30.5,1111122 
NERRS,ioos:station:NOAA.NERRS:rkblhwq:1,2016-01-05T13:45:00Z,26.0257,-81.7332,0.71,30.8,1111122 
NERRS,ioos:station:NOAA.NERRS:rkblhwq:1,2016-01-05T14:45:00Z,26.0257,-81.7332,0.82,31.1,1111122 
NERRS,ioos:station:NOAA.NERRS:rkblhwq:1,2016-01-05T15:45:00Z,26.0257,-81.7332,0.9,31.1,1111122 
NERRS,ioos:station:NOAA.NERRS:rkblhwq:1,2016-01-06T14:45:00Z,26.0257,-81.7332,0.78,31.4,1111122 
NERRS,ioos:station:NOAA.NERRS:rkblhwq:1,2016-01-06T15:45:00Z,26.0257,-81.7332,0.89,31.4,1111122 
NERRS,ioos:station:NOAA.NERRS:rkblhwq:1,2016-01-06T16:45:00Z,26.0257,-81.7332,0.96,31.5,1111122 
NERRS,ioos:station:NOAA.NERRS:rkblhwq:1,2016-01-06T17:45:00Z,26.0257,-81.7332,1.0,31.6,1111122 
NERRS,ioos:station:NOAA.NERRS:rkblhwq:1,2016-01-06T18:45:00Z,26.0257,-81.7332,0.92,31.4,1111122 
NERRS,ioos:station:NOAA.NERRS:rkblhwq:1,2016-01-06T19:45:00Z,26.0257,-81.7332,0.84,31.2,1111122 
NERRS,ioos:station:NOAA.NERRS:rkblhwq:1,2016-01-06T20:45:00Z,26.0257,-81.7332,0.8,30.8,1111122 
NERRS,ioos:station:NOAA.NERRS:rkblhwq:1,2016-01-06T21:45:00Z,26.0257,-81.7332,0.81,30.6,1111122 
NERRS,ioos:station:NOAA.NERRS:rkblhwq:1,2016-01-06T22:45:00Z,26.0257,-81.7332,0.88,31.8,1111122 
NERRS,ioos:station:NOAA.NERRS:rkblhwq:1,2016-01-06T23:45:00Z,26.0257,-81.7332,0.97,31.6,1111122 
NERRS,ioos:station:NOAA.NERRS:rkblhwq:1,2016-01-07T00:45:00Z,26.0257,-81.7332,1.07,31.8,1111122 
NERRS,ioos:station:NOAA.NERRS:rkblhwq:1,2016-01-07T01:45:00Z,26.0257,-81.7332,1.17,32.0,1111122 
NERRS,ioos:station:NOAA.NERRS:rkblhwq:1,2016-01-07T02:45:00Z,26.0257,-81.7332,1.24,32.3,1111122 
NERRS,ioos:station:NOAA.NERRS:rkblhwq:1,2016-01-07T03:45:00Z,26.0257,-81.7332,1.27,32.6,1111122 
NERRS,ioos:station:NOAA.NERRS:rkblhwq:1,2016-01-07T04:45:00Z,26.0257,-81.7332,1.26,32.3,1111122 
NERRS,ioos:station:NOAA.NERRS:rkblhwq:1,2016-01-07T05:45:00Z,26.0257,-81.7332,1.15,31.4,1111122 
NERRS,ioos:station:NOAA.NERRS:rkblhwq:1,2016-01-07T06:45:00Z,26.0257,-81.7332,1.02,31.1,1111122 
NERRS,ioos:station:NOAA.NERRS:rkblhwq:1,2016-01-07T07:45:00Z,26.0257,-81.7332,0.86,31.0,1111122 
NERRS,ioos:station:NOAA.NERRS:rkblhwq:1,2016-01-07T09:45:00Z,26.0257,-81.7332,0.57,30.9,1111122 
NERRS,ioos:station:NOAA.NERRS:rkblhwq:1,2016-01-07T10:45:00Z,26.0257,-81.7332,0.48,30.8,1111122 
NERRS,ioos:station:NOAA.NERRS:rkblhwq:1,2016-01-07T11:45:00Z,26.0257,-81.7332,0.48,29.9,1111122 
NERRS,ioos:station:NOAA.NERRS:rkblhwq:1,2016-01-07T12:45:00Z,26.0257,-81.7332,0.58,30.8,1111122 
NERRS,ioos:station:NOAA.NERRS:rkblhwq:1,2016-01-07T13:30:00Z,26.0257,-81.7332,0.68,30.9,1111122 
NERRS,ioos:station:NOAA.NERRS:rkblhwq:1,2016-01-07T14:45:00Z,26.0257,-81.7332,0.87,31.3,1111122 
NERRS,ioos:station:NOAA.NERRS:rkblhwq:1,2016-01-07T15:45:00Z,26.0257,-81.7332,1.02,31.8,1111122 
NERRS,ioos:station:NOAA.NERRS:rkblhwq:1,2016-01-07T16:45:00Z,26.0257,-81.7332,1.14,31.8,1111122 
NERRS,ioos:station:NOAA.NERRS:rkblhwq:1,2016-01-07T17:45:00Z,26.0257,-81.7332,1.21,32.1,1111122 
NERRS,ioos:station:NOAA.NERRS:rkblhwq:1,2016-01-07T18:45:00Z,26.0257,-81.7332,1.17,32.1,1111122 
NERRS,ioos:station:NOAA.NERRS:rkblhwq:1,2016-01-07T19:45:00Z,26.0257,-81.7332,1.07,32.2,1111122 
NERRS,ioos:station:NOAA.NERRS:rkblhwq:1,2016-01-07T20:45:00Z,26.0257,-81.7332,0.98,32.0,1111122 
NERRS,ioos:station:NOAA.NERRS:rkblhwq:1,2016-01-07T21:45:00Z,26.0257,-81.7332,0.92,32.0,1111122 
NERRS,ioos:station:NOAA.NERRS:rkblhwq:1,2016-01-07T22:45:00Z,26.0257,-81.7332,0.91,31.5,1111122 
NERRS,ioos:station:NOAA.NERRS:rkblhwq:1,2016-01-07T23:45:00Z,26.0257,-81.7332,0.96,31.7,1111122 
NERRS,ioos:station:NOAA.NERRS:rkblhwq:1,2016-01-08T00:45:00Z,26.0257,-81.7332,1.08,32.0,1111122 
NERRS,ioos:station:NOAA.NERRS:rkblhwq:1,2016-01-08T01:45:00Z,26.0257,-81.7332,1.18,32.0,1111122 
NERRS,ioos:station:NOAA.NERRS:rkblhwq:1,2016-01-08T02:45:00Z,26.0257,-81.7332,1.27,32.2,1111122 
NERRS,ioos:station:NOAA.NERRS:rkblhwq:1,2016-01-08T03:45:00Z,26.0257,-81.7332,1.34,32.4,1111122 
NERRS,ioos:station:NOAA.NERRS:rkblhwq:1,2016-01-08T04:45:00Z,26.0257,-81.7332,1.38,32.7,1111122 
NERRS,ioos:station:NOAA.NERRS:rkblhwq:1,2016-01-08T05:45:00Z,26.0257,-81.7332,1.35,32.2,1111122 
NERRS,ioos:station:NOAA.NERRS:rkblhwq:1,2016-01-08T06:45:00Z,26.0257,-81.7332,1.24,32.3,1111122 
NERRS,ioos:station:NOAA.NERRS:rkblhwq:1,2016-01-08T07:45:00Z,26.0257,-81.7332,1.1,31.7,1111122 
NERRS,ioos:station:NOAA.NERRS:rkblhwq:1,2016-01-08T08:45:00Z,26.0257,-81.7332,0.94,31.2,1111122 
NERRS,ioos:station:NOAA.NERRS:rkblhwq:1,2016-01-08T09:45:00Z,26.0257,-81.7332,0.76,31.1,1111122 
NERRS,ioos:station:NOAA.NERRS:rkblhwq:1,2016-01-08T10:45:00Z,26.0257,-81.7332,0.62,31.1,1111122 
NERRS,ioos:station:NOAA.NERRS:rkblhwq:1,2016-01-08T11:45:00Z,26.0257,-81.7332,0.53,31.1,1111122 
NERRS,ioos:station:NOAA.NERRS:rkblhwq:1,2016-01-08T12:45:00Z,26.0257,-81.7332,0.54,30.9,1111122 
NERRS,ioos:station:NOAA.NERRS:rkblhwq:1,2016-01-08T13:45:00Z,26.0257,-81.7332,0.67,31.3,1111122 
NERRS,ioos:station:NOAA.NERRS:rkblhwq:1,2016-01-08T14:45:00Z,26.0257,-81.7332,0.84,31.4,1111122 
NERRS,ioos:station:NOAA.NERRS:rkblhwq:1,2016-01-08T15:45:00Z,26.0257,-81.7332,1.03,31.8,1111122 
NERRS,ioos:station:NOAA.NERRS:rkblhwq:1,2016-01-08T16:45:00Z,26.0257,-81.7332,1.18,32.1,1111122 
NERRS,ioos:station:NOAA.NERRS:rkblhwq:1,2016-01-08T17:45:00Z,26.0257,-81.7332,1.26,32.4,1111122 
NERRS,ioos:station:NOAA.NERRS:rkblhwq:1,2016-01-08T18:45:00Z,26.0257,-81.7332,1.28,32.4,1111122 
NERRS,ioos:station:NOAA.NERRS:rkblhwq:1,2016-01-08T19:45:00Z,26.0257,-81.7332,1.2,32.3,1111122 
NERRS,ioos:station:NOAA.NERRS:rkblhwq:1,2016-01-08T20:45:00Z,26.0257,-81.7332,1.11,32.3,1111122 
NERRS,ioos:station:NOAA.NERRS:rkblhwq:1,2016-01-08T21:45:00Z,26.0257,-81.7332,1.01,32.2,1111122 
NERRS,ioos:station:NOAA.NERRS:rkblhwq:1,2016-01-08T22:45:00Z,26.0257,-81.7332,0.92,31.9,1111122 
NERRS,ioos:station:NOAA.NERRS:rkblhwq:1,2016-01-08T23:45:00Z,26.0257,-81.7332,0.87,31.8,1111122 
NERRS,ioos:station:NOAA.NERRS:rkblhwq:1,2016-01-09T00:45:00Z,26.0257,-81.7332,0.94,31.9,1111122 
NERRS,ioos:station:NOAA.NERRS:rkblhwq:1,2016-01-09T01:45:00Z,26.0257,-81.7332,1.04,32.2,1111122 
NERRS,ioos:station:NOAA.NERRS:rkblhwq:1,2016-01-09T02:45:00Z,26.0257,-81.7332,1.16,32.3,1111122 
NERRS,ioos:station:NOAA.NERRS:rkblhwq:1,2016-01-09T03:45:00Z,26.0257,-81.7332,1.26,32.5,1111122 
NERRS,ioos:station:NOAA.NERRS:rkblhwq:1,2016-01-09T04:45:00Z,26.0257,-81.7332,1.33,32.6,1111122 
NERRS,ioos:station:NOAA.NERRS:rkblhwq:1,2016-01-09T05:45:00Z,26.0257,-81.7332,1.36,32.9,1111122 
NERRS,ioos:station:NOAA.NERRS:rkblhwq:1,2016-01-09T06:45:00Z,26.0257,-81.7332,1.29,32.5,1111122 
NERRS,ioos:station:NOAA.NERRS:rkblhwq:1,2016-01-09T07:45:00Z,26.0257,-81.7332,1.17,32.4,1111122 
NERRS,ioos:station:NOAA.NERRS:rkblhwq:1,2016-01-09T09:45:00Z,26.0257,-81.7332,0.83,31.2,1111122 
NERRS,ioos:station:NOAA.NERRS:rkblhwq:1,2016-01-09T10:45:00Z,26.0257,-81.7332,0.66,31.0,1111122 
NERRS,ioos:station:NOAA.NERRS:rkblhwq:1,2016-01-09T11:45:00Z,26.0257,-81.7332,0.52,31.0,1111122 
NERRS,ioos:station:NOAA.NERRS:rkblhwq:1,2016-01-09T12:45:00Z,26.0257,-81.7332,0.45,31.2,1111122 
NERRS,ioos:station:NOAA.NERRS:rkblhwq:1,2016-01-09T13:45:00Z,26.0257,-81.7332,0.51,30.7,1111122 
NERRS,ioos:station:NOAA.NERRS:rkblhwq:1,2016-01-09T14:45:00Z,26.0257,-81.7332,0.66,31.4,1111122 
NERRS,ioos:station:NOAA.NERRS:rkblhwq:1,2016-01-09T15:45:00Z,26.0257,-81.7332,0.83,31.5,1111122 
NERRS,ioos:station:NOAA.NERRS:rkblhwq:1,2016-01-09T16:45:00Z,26.0257,-81.7332,1.0,32.0,1111122 
NERRS,ioos:station:NOAA.NERRS:rkblhwq:1,2016-01-09T17:45:00Z,26.0257,-81.7332,1.13,32.3,1111122 
NERRS,ioos:station:NOAA.NERRS:rkblhwq:1,2016-01-09T18:45:00Z,26.0257,-81.7332,1.22,32.5,1111122 
NERRS,ioos:station:NOAA.NERRS:rkblhwq:1,2016-01-09T19:45:00Z,26.0257,-81.7332,1.22,32.2,1111122 
NERRS,ioos:station:NOAA.NERRS:rkblhwq:1,2016-01-09T20:45:00Z,26.0257,-81.7332,1.14,32.3,1111122 
NERRS,ioos:station:NOAA.NERRS:rkblhwq:1,2016-01-09T21:45:00Z,26.0257,-81.7332,1.05,32.4,1111122 
NERRS,ioos:station:NOAA.NERRS:rkblhwq:1,2016-01-09T22:45:00Z,26.0257,-81.7332,0.96,32.3,1111122 
NERRS,ioos:station:NOAA.NERRS:rkblhwq:1,2016-01-09T23:45:00Z,26.0257,-81.7332,0.89,32.1,1111122 
NERRS,ioos:station:NOAA.NERRS:rkblhwq:1,2016-01-10T00:45:00Z,26.0257,-81.7332,0.92,32.2,1111122 
NERRS,ioos:station:NOAA.NERRS:rkblhwq:1,2016-01-10T01:45:00Z,26.0257,-81.7332,1.05,32.3,1111122 
NERRS,ioos:station:NOAA.NERRS:rkblhwq:1,2016-01-10T02:45:00Z,26.0257,-81.7332,1.19,32.5,1111122 
NERRS,ioos:station:NOAA.NERRS:rkblhwq:1,2016-01-10T03:45:00Z,26.0257,-81.7332,1.33,32.7,1111122 
NERRS,ioos:station:NOAA.NERRS:rkblhwq:1,2016-01-10T04:45:00Z,26.0257,-81.7332,1.4,32.7,1111122 
NERRS,ioos:station:NOAA.NERRS:rkblhwq:1,2016-01-10T05:45:00Z,26.0257,-81.7332,1.45,32.8,1111122 
NERRS,ioos:station:NOAA.NERRS:rkblhwq:1,2016-01-10T06:45:00Z,26.0257,-81.7332,1.44,33.0,1111122 
NERRS,ioos:station:NOAA.NERRS:rkblhwq:1,2016-01-10T07:45:00Z,26.0257,-81.7332,1.35,32.7,1111122 
NERRS,ioos:station:NOAA.NERRS:rkblhwq:1,2016-01-10T08:45:00Z,26.0257,-81.7332,1.24,32.4,1111122 
NERRS,ioos:station:NOAA.NERRS:rkblhwq:1,2016-01-10T09:45:00Z,26.0257,-81.7332,1.09,32.1,1111122 
NERRS,ioos:station:NOAA.NERRS:rkblhwq:1,2016-01-10T10:45:00Z,26.0257,-81.7332,0.92,31.7,1111122 
NERRS,ioos:station:NOAA.NERRS:rkblhwq:1,2016-01-10T11:45:00Z,26.0257,-81.7332,0.74,31.0,1111122 
NERRS,ioos:station:NOAA.NERRS:rkblhwq:1,2016-01-10T12:45:00Z,26.0257,-81.7332,0.59,30.9,1111122 
NERRS,ioos:station:NOAA.NERRS:rkblhwq:1,2016-01-10T13:45:00Z,26.0257,-81.7332,0.54,31.0,1111122 
NERRS,ioos:station:NOAA.NERRS:rkblhwq:1,2016-01-10T14:45:00Z,26.0257,-81.7332,0.7,30.8,1111122 
NERRS,ioos:station:NOAA.NERRS:rkblhwq:1,2016-01-10T15:45:00Z,26.0257,-81.7332,0.86,31.1,1111122 
NERRS,ioos:station:NOAA.NERRS:rkblhwq:1,2016-01-10T16:45:00Z,26.0257,-81.7332,1.0,31.5,1111122 
NERRS,ioos:station:NOAA.NERRS:rkblhwq:1,2016-01-10T17:45:00Z,26.0257,-81.7332,1.14,31.8,1111122 
NERRS,ioos:station:NOAA.NERRS:rkblhwq:1,2016-01-10T18:45:00Z,26.0257,-81.7332,1.24,32.0,1111122 
NERRS,ioos:station:NOAA.NERRS:rkblhwq:1,2016-01-10T20:45:00Z,26.0257,-81.7332,1.22,31.7,1111122 
NERRS,ioos:station:NOAA.NERRS:rkblhwq:1,2016-01-10T21:45:00Z,26.0257,-81.7332,1.12,31.8,1111122 
NERRS,ioos:station:NOAA.NERRS:rkblhwq:1,2016-01-10T22:45:00Z,26.0257,-81.7332,1.01,31.4,1111122 
NERRS,ioos:station:NOAA.NERRS:rkblhwq:1,2016-01-10T23:45:00Z,26.0257,-81.7332,0.9,30.8,1111122 
NERRS,ioos:station:NOAA.NERRS:rkblhwq:1,2016-01-11T00:45:00Z,26.0257,-81.7332,0.78,30.8,1111122 
NERRS,ioos:station:NOAA.NERRS:rkblhwq:1,2016-01-11T01:45:00Z,26.0257,-81.7332,0.76,29.4,1111122 
NERRS,ioos:station:NOAA.NERRS:rkblhwq:1,2016-01-11T02:45:00Z,26.0257,-81.7332,0.89,30.4,1111122 
NERRS,ioos:station:NOAA.NERRS:rkblhwq:1,2016-01-11T03:45:00Z,26.0257,-81.7332,1.05,30.6,1111122 
NERRS,ioos:station:NOAA.NERRS:rkblhwq:1,2016-01-11T04:45:00Z,26.0257,-81.7332,1.19,31.6,1111122 
NERRS,ioos:station:NOAA.NERRS:rkblhwq:1,2016-01-11T05:45:00Z,26.0257,-81.7332,1.29,31.8,1111122 
NERRS,ioos:station:NOAA.NERRS:rkblhwq:1,2016-01-11T06:45:00Z,26.0257,-81.7332,1.32,31.5,1111122 
NERRS,ioos:station:NOAA.NERRS:rkblhwq:1,2016-01-11T07:45:00Z,26.0257,-81.7332,1.26,31.1,1111122 
NERRS,ioos:station:NOAA.NERRS:rkblhwq:1,2016-01-11T09:45:00Z,26.0257,-81.7332,0.98,30.8,1111122 
NERRS,ioos:station:NOAA.NERRS:rkblhwq:1,2016-01-11T10:45:00Z,26.0257,-81.7332,0.82,29.8,1111122 
NERRS,ioos:station:NOAA.NERRS:rkblhwq:1,2016-01-11T11:45:00Z,26.0257,-81.7332,0.67,28.9,1111122 
NERRS,ioos:station:NOAA.NERRS:rkblhwq:1,2016-01-11T12:45:00Z,26.0257,-81.7332,0.53,29.1,1111122 
NERRS,ioos:station:NOAA.NERRS:rkblhwq:1,2016-01-11T13:45:00Z,26.0257,-81.7332,0.42,28.6,1111122 
NERRS,ioos:station:NOAA.NERRS:rkblhwq:1,2016-01-11T14:45:00Z,26.0257,-81.7332,0.4,25.6,1111122 
NERRS,ioos:station:NOAA.NERRS:rkblhwq:1,2016-01-11T15:45:00Z,26.0257,-81.7332,0.51,28.5,1111122 
NERRS,ioos:station:NOAA.NERRS:rkblhwq:1,2016-01-11T16:45:00Z,26.0257,-81.7332,0.66,29.0,1111122 
NERRS,ioos:station:NOAA.NERRS:rkblhwq:1,2016-01-11T17:45:00Z,26.0257,-81.7332,0.82,29.8,1111122 
NERRS,ioos:station:NOAA.NERRS:rkblhwq:1,2016-01-11T18:45:00Z,26.0257,-81.7332,0.97,29.9,1111122 
NERRS,ioos:station:NOAA.NERRS:rkblhwq:1,2016-01-11T19:45:00Z,26.0257,-81.7332,1.09,30.7,1111122 
NERRS,ioos:station:NOAA.NERRS:rkblhwq:1,2016-01-11T20:45:00Z,26.0257,-81.7332,1.14,31.1,1111122 
NERRS,ioos:station:NOAA.NERRS:rkblhwq:1,2016-01-11T21:45:00Z,26.0257,-81.7332,1.08,29.8,1111122 
NERRS,ioos:station:NOAA.NERRS:rkblhwq:1,2016-01-11T22:45:00Z,26.0257,-81.7332,0.97,29.8,1111122 
NERRS,ioos:station:NOAA.NERRS:rkblhwq:1,2016-01-11T23:45:00Z,26.0257,-81.7332,0.86,29.6,1111122 
NERRS,ioos:station:NOAA.NERRS:rkblhwq:1,2016-01-12T00:45:00Z,26.0257,-81.7332,0.78,29.4,1111122 
NERRS,ioos:station:NOAA.NERRS:rkblhwq:1,2016-01-12T01:45:00Z,26.0257,-81.7332,0.76,28.5,1111122 
NERRS,ioos:station:NOAA.NERRS:rkblhwq:1,2016-01-12T02:45:00Z,26.0257,-81.7332,0.85,30.6,1111122 
NERRS,ioos:station:NOAA.NERRS:rkblhwq:1,2016-01-12T03:45:00Z,26.0257,-81.7332,0.99,29.8,1111122 
NERRS,ioos:station:NOAA.NERRS:rkblhwq:1,2016-01-12T04:45:00Z,26.0257,-81.7332,1.13,30.4,1111122 
NERRS,ioos:station:NOAA.NERRS:rkblhwq:1,2016-01-12T05:45:00Z,26.0257,-81.7332,1.24,30.9,1111122 
NERRS,ioos:station:NOAA.NERRS:rkblhwq:1,2016-01-12T06:45:00Z,26.0257,-81.7332,1.32,31.4,1111122 
NERRS,ioos:station:NOAA.NERRS:rkblhwq:1,2016-01-12T07:45:00Z,26.0257,-81.7332,1.33,31.4,1111122 
NERRS,ioos:station:NOAA.NERRS:rkblhwq:1,2016-01-12T08:45:00Z,26.0257,-81.7332,1.26,29.7,1111122 
NERRS,ioos:station:NOAA.NERRS:rkblhwq:1,2016-01-12T09:45:00Z,26.0257,-81.7332,1.15,29.6,1111122 
NERRS,ioos:station:NOAA.NERRS:rkblhwq:1,2016-01-12T10:45:00Z,26.0257,-81.7332,1.0,29.8,1111122 
NERRS,ioos:station:NOAA.NERRS:rkblhwq:1,2016-01-12T11:45:00Z,26.0257,-81.7332,0.83,29.4,1111122 
NERRS,ioos:station:NOAA.NERRS:rkblhwq:1,2016-01-12T12:45:00Z,26.0257,-81.7332,0.68,29.3,1111122 
NERRS,ioos:station:NOAA.NERRS:rkblhwq:1,2016-01-12T13:45:00Z,26.0257,-81.7332,0.54,29.0,1111122 
NERRS,ioos:station:NOAA.NERRS:rkblhwq:1,2016-01-12T14:45:00Z,26.0257,-81.7332,0.45,28.4,1111122 
NERRS,ioos:station:NOAA.NERRS:rkblhwq:1,2016-01-12T15:45:00Z,26.0257,-81.7332,0.52,28.4,1111122 
NERRS,ioos:station:NOAA.NERRS:rkblhwq:1,2016-01-12T17:45:00Z,26.0257,-81.7332,0.8,30.1,1111122 
NERRS,ioos:station:NOAA.NERRS:rkblhwq:1,2016-01-12T18:45:00Z,26.0257,-81.7332,0.96,30.4,1111122 
NERRS,ioos:station:NOAA.NERRS:rkblhwq:1,2016-01-12T20:45:00Z,26.0257,-81.7332,1.17,31.2,1111122 
NERRS,ioos:station:NOAA.NERRS:rkblhwq:1,2016-01-12T22:45:00Z,26.0257,-81.7332,1.05,30.8,1111122 
NERRS,ioos:station:NOAA.NERRS:rkblhwq:1,2016-01-12T23:45:00Z,26.0257,-81.7332,0.93,30.5,1111122 
NERRS,ioos:station:NOAA.NERRS:rkblhwq:1,2016-01-13T00:45:00Z,26.0257,-81.7332,0.81,30.3,1111122 
NERRS,ioos:station:NOAA.NERRS:rkblhwq:1,2016-01-13T01:45:00Z,26.0257,-81.7332,0.69,29.5,1111122 
NERRS,ioos:station:NOAA.NERRS:rkblhwq:1,2016-01-13T02:45:00Z,26.0257,-81.7332,0.65,29.6,1111122 
NERRS,ioos:station:NOAA.NERRS:rkblhwq:1,2016-01-13T03:45:00Z,26.0257,-81.7332,0.75,30.0,1111122 
NERRS,ioos:station:NOAA.NERRS:rkblhwq:1,2016-01-13T04:45:00Z,26.0257,-81.7332,0.9,29.6,1111122 
NERRS,ioos:station:NOAA.NERRS:rkblhwq:1,2016-01-13T05:45:00Z,26.0257,-81.7332,1.04,30.6,1111122 
NERRS,ioos:station:NOAA.NERRS:rkblhwq:1,2016-01-13T06:45:00Z,26.0257,-81.7332,1.16,30.8,1111122 
NERRS,ioos:station:NOAA.NERRS:rkblhwq:1,2016-01-13T07:45:00Z,26.0257,-81.7332,1.24,31.2,1111122 
NERRS,ioos:station:NOAA.NERRS:rkblhwq:1,2016-01-13T08:45:00Z,26.0257,-81.7332,1.23,30.4,1111122 
NERRS,ioos:station:NOAA.NERRS:rkblhwq:1,2016-01-13T09:45:00Z,26.0257,-81.7332,1.12,28.9,1111122 
NERRS,ioos:station:NOAA.NERRS:rkblhwq:1,2016-01-13T10:45:00Z,26.0257,-81.7332,0.99,29.5,1111122 
NERRS,ioos:station:NOAA.NERRS:rkblhwq:1,2016-01-13T11:45:00Z,26.0257,-81.7332,0.84,29.5,1111122 
NERRS,ioos:station:NOAA.NERRS:rkblhwq:1,2016-01-13T12:45:00Z,26.0257,-81.7332,0.69,29.6,1111122 
NERRS,ioos:station:NOAA.NERRS:rkblhwq:1,2016-01-13T13:45:00Z,26.0257,-81.7332,0.55,29.3,1111122 
NERRS,ioos:station:NOAA.NERRS:rkblhwq:1,2016-01-13T14:45:00Z,26.0257,-81.7332,0.43,29.3,1111122 
NERRS,ioos:station:NOAA.NERRS:rkblhwq:1,2016-01-13T16:45:00Z,26.0257,-81.7332,0.46,28.9,1111122 
NERRS,ioos:station:NOAA.NERRS:rkblhwq:1,2016-01-13T17:45:00Z,26.0257,-81.7332,0.58,29.1,1111122 
NERRS,ioos:station:NOAA.NERRS:rkblhwq:1,2016-01-13T18:45:00Z,26.0257,-81.7332,0.74,30.3,1111122 
NERRS,ioos:station:NOAA.NERRS:rkblhwq:1,2016-01-13T19:45:00Z,26.0257,-81.7332,0.91,30.6,1111122 
NERRS,ioos:station:NOAA.NERRS:rkblhwq:1,2016-01-13T20:45:00Z,26.0257,-81.7332,1.05,30.6,1111122 
NERRS,ioos:station:NOAA.NERRS:rkblhwq:1,2016-01-13T21:45:00Z,26.0257,-81.7332,1.15,30.9,1111122 
NERRS,ioos:station:NOAA.NERRS:rkblhwq:1,2016-01-13T23:45:00Z,26.0257,-81.7332,0.99,30.3,1111122 